Find Starlink 37522

NORAD ID: 69446 Int'l Des: 2026-127 Owner: SPXS Country: US Constellation: starlink operational
LEOCIRCULAR

現在のビュー

3D地球を読み込み中...

About Starlink 37522

Starlink 37522 (NORAD 69446) is a starlink constellation satellite launched Jun 8, 2026 by SPXS of US. It operates in LEO, CIRCULAR orbit with a mass of 575.00 kg.

次回通過

Passes for default location (London). Set your location on the main map for personalized predictions.

高度履歴

Loading altitude history...

軌道要素

1 69446U 26127D 26206.58335648 .00072489 00000-0 13012-2 0 9994
2 69446 53.1593 72.7881 0001332 96.3375 135.8334 15.49267592 6016
Epoch: Jul 25, 2026 • Age: 20 hours

現在のステータス

高度 437.7 km
遠地点 / 近地点 N/A
速度 7.65 km/s
衛星直下点 -52.67°S, 131.6°W
打ち上げ日 Jun 8, 2026
運用期間 0.1 years
タイプ internet

技術仕様

分類 Payload
質量 575.00 kg
乾燥質量 530.00 kg
総質量 575.00 kg
長さ 0.30 m
直径 4.10 m
スパン 29.00 m
形状 Box + pan
製造者 SPXS
バスタイプ Starlink V2MO
フェーズステータス In Orbit
所有者/国 SPXS/US

Most Searched